GW3329 Weather Reports


time (UTC)temp
F
wind
direction
speed
knots
gust
knots
rain 1hr
in
rain 24hr
in
rain mn
in
humidity
%
barometer
mb
20260904104820 57 151 0.0 0.0 0.00 0.00 0.00 95 1016.3
20260904104315 57 151 0.0 0.0 0.00 0.00 0.00 95 1016.2
20260904103812 57 151 0.0 0.0 0.00 0.00 0.00 95 1016.2
20260904103312 57 151 0.0 0.0 0.00 0.00 0.00 95 1015.8
20260904102808 57 151 0.0 0.0 0.00 0.00 0.00 95 1016.1
20260904102306 57 151 0.0 0.0 0.00 0.00 0.00 95 1016.2
20260904101759 57 147 0.0 0.0 0.00 0.00 0.00 95 1016.1
20260904101255 57 147 0.0 0.0 0.00 0.00 0.00 95 1015.7
20260904100751 57 147 0.0 0.0 0.00 0.00 0.00 95 1016.0
20260904100246 57 147 0.0 0.0 0.00 0.00 0.00 95 1016.1
20260904095746 57 134 0.0 0.0 0.00 0.00 0.00 95 1015.9
20260904095241 57 152 0.0 0.0 0.00 0.00 0.00 94 1016.1
20260904094736 58 152 0.0 0.0 0.00 0.00 0.00 94 1016.2
20260904094231 58 152 0.0 0.0 0.00 0.00 0.00 94 1016.1
20260904093728 58 151 0.0 0.0 0.00 0.00 0.00 94 1016.1
20260904093227 58 151 0.0 0.0 0.00 0.00 0.00 94 1016.0
20260904092723 58 151 0.0 0.0 0.00 0.00 0.00 94 1016.1
20260904092219 58 151 0.0 0.0 0.00 0.00 0.00 93 1016.1
20260904091714 58 151 0.0 0.0 0.00 0.00 0.00 93 1016.1
20260904091210 58 151 0.0 0.0 0.00 0.00 0.00 93 1016.1
20260904090705 58 151 0.0 0.0 0.00 0.00 0.00 93 1016.0
20260904090201 59 151 0.0 0.0 0.00 0.00 0.00 93 1016.0
20260904085655 59 151 0.0 0.0 0.00 0.00 0.00 92 1015.9
20260904085150 59 151 0.0 0.0 0.00 0.00 0.00 92 1016.0
20260904084645 59 151 0.0 0.0 0.00 0.00 0.00 92 1016.2
20260904084142 59 151 0.0 0.0 0.00 0.00 0.00 92 1016.1
20260904083638 59 151 0.0 0.0 0.00 0.00 0.00 92 1016.3
20260904083133 59 151 0.0 0.0 0.00 0.00 0.00 92 1016.2
20260904082628 59 151 0.0 0.0 0.00 0.00 0.00 92 1016.1
20260904082124 60 151 0.0 0.0 0.00 0.00 0.00 92 1016.2
20260904081619 60 151 0.0 0.0 0.00 0.00 0.00 92 1016.5
20260904081114 60 151 0.0 0.0 0.00 0.00 0.00 92 1016.2
20260904080610 60 151 0.0 0.0 0.00 0.00 0.00 92 1016.6
20260904080106 60 151 0.0 0.0 0.00 0.00 0.00 92 1016.4
20260904075601 60 151 0.0 0.0 0.00 0.00 0.00 92 1016.3
20260904075055 60 152 0.0 0.0 0.00 0.00 0.00 92 1016.5
20260904074555 60 151 0.0 0.0 0.00 0.00 0.00 93 1016.4
20260904074050 60 149 0.0 0.0 0.00 0.00 0.00 92 1016.5
20260904073544 60 171 0.0 0.0 0.00 0.00 0.00 92 1016.7
20260904073041 60 171 0.0 0.0 0.00 0.00 0.00 92 1016.4
20260904072536 60 171 0.0 0.0 0.00 0.00 0.00 92 1016.5
20260904072031 60 166 0.0 0.0 0.00 0.00 0.00 92 1016.5
20260904071526 60 166 0.0 0.0 0.00 0.00 0.00 93 1016.4
20260904071021 60 157 0.0 0.0 0.00 0.00 0.00 92 1016.5
20260904070521 60 157 0.0 0.0 0.00 0.00 0.00 92 1016.3
20260904070016 60 157 0.0 0.0 0.00 0.00 0.00 93 1016.1
20260904065511 60 157 0.0 0.0 0.00 0.00 0.00 93 1016.3
20260904065007 60 157 0.0 0.0 0.00 0.00 0.00 93 1016.3
20260904064503 60 157 0.0 0.0 0.00 0.00 0.00 93 1016.3
20260904064002 60 157 0.0 0.0 0.00 0.00 0.00 93 1016.3
20260904063459 60 157 0.0 0.0 0.00 0.00 0.00 93 1016.2
20260904062954 60 157 0.0 0.0 0.00 0.00 0.00 93 1016.2
20260904062450 60 155 0.0 0.0 0.00 0.00 0.00 93 1016.2
20260904061945 61 155 0.0 0.0 0.00 0.00 0.00 93 1016.0
20260904061442 60 155 0.0 0.0 0.00 0.00 0.00 92 1016.2
20260904060937 60 152 0.0 0.0 0.00 0.00 0.00 92 1016.2
20260904060433 61 155 0.0 0.0 0.00 0.00 0.00 92 1016.4
20260904055929 61 155 0.0 0.0 0.00 0.00 0.00 92 1016.2
20260904055424 61 153 0.0 0.0 0.00 0.00 0.00 92 1016.3
20260904054920 61 155 0.0 0.0 0.00 0.00 0.00 92 1016.1
20260904054415 61 153 0.0 0.0 0.00 0.00 0.00 92 1016.4
20260904053911 62 153 0.0 0.0 0.00 0.00 0.00 92 1016.3
20260904053410 62 153 0.0 0.0 0.00 0.00 0.00 92 1016.2
20260904052906 62 153 0.0 0.0 0.00 0.00 0.00 91 1016.5
20260904052402 62 153 0.0 0.0 0.00 0.00 0.00 91 1016.4
20260904051859 62 153 0.0 0.0 0.00 0.00 0.00 91 1016.5
20260904051354 62 153 0.0 0.0 0.00 0.00 0.00 91 1016.4
20260904050848 62 153 0.0 0.0 0.00 0.00 0.00 90 1016.8
20260904050345 62 153 0.0 0.0 0.00 0.00 0.00 90 1016.7
20260904045839 62 152 0.0 0.0 0.00 0.00 0.00 89 1016.7
20260904045334 62 153 0.0 0.0 0.00 0.00 0.00 88 1016.6
20260904044829 63 152 0.0 0.0 0.00 0.00 0.00 87 1016.3
20260904044325 63 163 0.0 0.0 0.00 0.00 0.00 87 1016.7
20260904043821 63 162 0.0 0.0 0.00 0.00 0.00 88 1016.5
20260904043317 63 168 0.0 0.0 0.00 0.00 0.00 89 1016.6
20260904042812 63 167 0.0 0.0 0.00 0.00 0.00 88 1016.5
20260904042309 63 176 0.0 0.0 0.00 0.00 0.00 88 1016.4
20260904041808 63 170 0.0 0.0 0.00 0.00 0.00 87 1016.6
20260904041305 63 169 0.0 0.0 0.00 0.00 0.00 87 1016.5
20260904040800 64 183 0.9 0.9 0.00 0.00 0.00 87 1016.3
20260904040256 63 187 0.0 0.0 0.00 0.00 0.00 86 1016.4
20260904035751 64 157 0.0 0.0 0.00 0.00 0.00 86 1016.2
20260904035247 64 166 0.0 0.0 0.00 0.00 0.00 85 1016.3
20260904034746 64 162 0.0 0.0 0.00 0.00 0.00 85 1016.5
20260904034241 64 158 0.0 0.0 0.00 0.00 0.00 84 1016.2
20260904033736 64 167 0.0 0.0 0.00 0.00 0.00 84 1016.3
20260904033233 64 162 0.0 0.0 0.00 0.00 0.00 84 1016.2
20260904032729 64 162 0.0 0.0 0.00 0.00 0.00 83 1016.0
20260904032228 65 158 0.0 0.0 0.00 0.00 0.00 83 1016.2
20260904031723 65 162 0.0 0.0 0.00 0.00 0.00 82 1016.3
20260904031218 65 160 0.0 0.0 0.00 0.00 0.00 82 1016.0
20260904030714 65 161 0.0 0.9 0.00 0.00 0.00 82 1015.9
20260904030209 65 170 0.0 0.0 0.00 0.00 0.00 81 1016.1
20260904025706 66 155 0.0 0.9 0.00 0.00 0.00 81 1016.0
20260904025200 66 131 0.0 0.0 0.00 0.00 0.00 80 1015.9
20260904024656 66 128 0.0 0.9 0.00 0.00 0.00 80 1015.9
20260904024151 66 178 0.0 0.9 0.00 0.00 0.00 79 1015.9
20260904023647 66 144 0.0 0.9 0.00 0.00 0.00 78 1015.7
20260904023143 67 190 0.0 1.7 0.00 0.00 0.00 78 1015.8
20260904022642 67 208 1.7 3.5 0.00 0.00 0.00 77 1015.8
20260904022139 67 178 0.0 0.9 0.00 0.00 0.00 77 1015.9
20260904021635 68 249 1.7 1.7 0.00 0.00 0.00 76 1015.9
20260904021125 68 178 0.9 5.2 0.00 0.00 0.00 75 1015.8
20260904020621 68 103 0.9 1.7 0.00 0.00 0.00 75 1015.7
20260904020115 69 245 1.7 1.7 0.00 0.00 0.00 74 1015.8
20260904015615 69 141 0.0 1.7 0.00 0.00 0.00 73 1015.7
20260904015113 69 53 0.0 1.7 0.00 0.00 0.00 73 1015.5
20260904014607 70 92 0.9 2.6 0.00 0.00 0.00 72 1015.6
20260904014103 70 203 0.9 0.9 0.00 0.00 0.00 72 1015.8
20260904013600 70 155 0.0 0.9 0.00 0.00 0.00 72 1015.8
20260904013056 71 148 0.0 2.6 0.00 0.00 0.00 71 1015.8
20260904012556 71 178 1.7 2.6 0.00 0.00 0.00 70 1015.7
20260904012056 72 231 0.9 1.7 0.00 0.00 0.00 69 1015.9
20260904011550 72 102 0.9 3.5 0.00 0.00 0.00 69 1015.9
20260904011045 73 8 0.9 2.6 0.00 0.00 0.00 68 1015.9
20260904010541 73 259 2.6 5.2 0.00 0.00 0.00 69 1016.0
20260904010037 73 257 3.5 5.2 0.00 0.00 0.00 68 1015.9
20260904005532 73 133 0.0 3.5 0.00 0.00 0.00 68 1015.8
20260904005027 74 291 3.5 3.5 0.00 0.00 0.00 67 1015.8
20260904004523 74 235 2.6 2.6 0.00 0.00 0.00 67 1016.0
20260904004022 74 262 3.5 3.5 0.00 0.00 0.00 67 1016.1
20260904003519 74 38 1.7 6.1 0.00 0.00 0.00 67 1015.9
20260904003014 74 168 1.7 6.1 0.00 0.00 0.00 67 1015.7
20260904002510 75 265 0.9 2.6 0.00 0.00 0.00 67 1015.8
20260904002009 75 171 2.6 5.2 0.00 0.00 0.00 66 1015.9
20260904001505 75 250 2.6 3.5 0.00 0.00 0.00 67 1016.0
20260904000959 75 265 2.6 5.2 0.00 0.00 0.00 67 1015.8
20260904000458 75 201 2.6 5.2 0.00 0.00 0.00 67 1015.8
20260903235954 75 202 0.9 5.2 0.00 0.00 0.00 66 1015.7
20260903235449 76 297 2.6 6.1 0.00 0.00 0.00 66 1016.0
20260903234944 77 260 3.5 5.2 0.00 0.00 0.00 65 1016.0
20260903234440 76 291 1.7 8.7 0.00 0.00 0.00 65 1016.1
20260903233936 76 269 2.6 5.2 0.00 0.00 0.00 65 1015.9
20260903233431 76 242 3.5 5.2 0.00 0.00 0.00 65 1015.9
20260903232926 77 307 1.7 5.2 0.00 0.00 0.00 65 1016.1
20260903232420 77 171 1.7 3.5 0.00 0.00 0.00 64 1016.0
20260903231915 77 287 1.7 5.2 0.00 0.00 0.00 64 1016.1
20260903231410 77 305 3.5 5.2 0.00 0.00 0.00 64 1016.2
20260903230905 78 159 4.3 7.8 0.00 0.00 0.00 64 1016.1
20260903230400 78 125 2.6 5.2 0.00 0.00 0.00 64 1016.1
20260903225856 78 266 1.7 3.5 0.00 0.00 0.00 63 1016.1
20260903225352 79 13 2.6 7.8 0.00 0.00 0.00 63 1016.2
20260903224848 79 46 1.7 2.6 0.00 0.00 0.00 63 1016.1
20260903224344 80 97 2.6 7.0 0.00 0.00 0.00 62 1016.4
20260903223839 79 249 0.9 1.7 0.00 0.00 0.00 62 1016.3
20260903223337 80 189 2.6 3.5 0.00 0.00 0.00 63 1016.2
20260903222832 79 14 1.7 2.6 0.00 0.00 0.00 63 1016.4
20260903222327 79 138 0.9 2.6 0.00 0.00 0.00 63 1016.1
20260903221821 80 224 1.7 2.6 0.00 0.00 0.00 61 1016.5
20260903221320 80 269 3.5 7.0 0.00 0.00 0.00 61 1016.2
20260903220818 79 158 3.5 5.2 0.00 0.00 0.00 63 1016.4
20260903220312 79 276 5.2 8.7 0.00 0.00 0.00 63 1016.6
20260903215810 80 187 1.7 3.5 0.00 0.00 0.00 62 1016.6
20260903215308 80 218 3.5 5.2 0.00 0.00 0.00 62 1016.5
20260903214805 80 264 5.2 7.8 0.00 0.00 0.00 62 1016.7
20260903214302 79 51 1.7 3.5 0.00 0.00 0.00 63 1016.5
20260903213756 80 112 1.7 7.0 0.00 0.00 0.00 63 1016.5
20260903213251 80 354 1.7 5.2 0.00 0.00 0.00 63 1016.4
20260903212742 80 156 0.9 3.5 0.00 0.00 0.00 64 1016.5
20260903212238 79 285 3.5 6.1 0.00 0.00 0.00 64 1016.6
20260903211731 79 191 1.7 3.5 0.00 0.00 0.00 64 1016.6
20260903211228 78 13 0.9 5.2 0.00 0.00 0.00 66 1016.8
20260903210724 79 15 3.5 6.1 0.00 0.00 0.00 64 1016.9
20260903210219 79 53 0.9 3.5 0.00 0.00 0.00 65 1016.9
20260903205719 79 265 4.3 7.0 0.00 0.00 0.00 64 1016.7
20260903205218 79 127 1.7 6.1 0.00 0.00 0.00 64 1017.0
20260903204713 79 242 2.6 7.0 0.00 0.00 0.00 65 1016.7
20260903204210 79 98 0.0 3.5 0.00 0.00 0.00 66 1016.8
20260903203705 78 223 3.5 6.1 0.00 0.00 0.00 65 1016.7
20260903203201 79 244 3.5 7.0 0.00 0.00 0.00 64 1017.0
20260903202654 80 260 3.5 7.0 0.00 0.00 0.00 63 1016.9
20260903202150 80 223 1.7 3.5 0.00 0.00 0.00 63 1016.8
20260903201644 80 167 1.7 5.2 0.00 0.00 0.00 64 1016.8
20260903201143 79 63 0.9 7.8 0.00 0.00 0.00 64 1016.8
20260903200638 80 201 2.6 3.5 0.00 0.00 0.00 63 1016.9
20260903200133 80 258 3.5 5.2 0.00 0.00 0.00 63 1016.9
20260903195629 79 183 0.9 5.2 0.00 0.00 0.00 63 1017.0
20260903195125 80 91 0.9 5.2 0.00 0.00 0.00 64 1017.2
20260903194620 79 243 2.6 7.8 0.00 0.00 0.00 63 1017.1
20260903194120 80 54 0.9 6.1 0.00 0.00 0.00 63 1017.2
20260903193616 80 197 0.9 1.7 0.00 0.00 0.00 62 1017.1
20260903193111 80 160 1.7 2.6 0.00 0.00 0.00 62 1017.1
20260903192609 80 203 3.5 5.2 0.00 0.00 0.00 62 1017.4
20260903192108 79 244 6.1 7.0 0.00 0.00 0.00 63 1017.1
20260903191605 80 289 3.5 5.2 0.00 0.00 0.00 61 1017.3
20260903191059 79 284 3.5 6.1 0.00 0.00 0.00 61 1017.3
20260903190559 79 108 1.7 3.5 0.00 0.00 0.00 62 1017.3
20260903190059 81 308 5.2 6.1 0.00 0.00 0.00 58 1017.5
20260903185554 80 155 0.0 0.9 0.00 0.00 0.00 60 1017.5
20260903185049 80 102 0.0 1.7 0.00 0.00 0.00 60 1017.9
20260903184545 79 104 0.0 2.6 0.00 0.00 0.00 59 1017.6
20260903184040 80 56 0.0 2.6 0.00 0.00 0.00 58 1017.7
20260903183539 80 30 1.7 1.7 0.00 0.00 0.00 58 1017.7
20260903183035 80 107 0.9 1.7 0.00 0.00 0.00 57 1017.8
20260903182533 80 165 0.9 3.5 0.00 0.00 0.00 58 1017.8
20260903182030 79 59 0.9 1.7 0.00 0.00 0.00 59 1017.8
20260903181528 79 138 0.9 2.6 0.00 0.00 0.00 59 1017.8
20260903181023 79 121 0.9 3.5 0.00 0.00 0.00 59 1017.7
20260903180519 78 97 1.7 2.6 0.00 0.00 0.00 59 1017.7
20260903180018 78 67 0.0 1.7 0.00 0.00 0.00 60 1017.9
20260903175517 78 186 2.6 3.5 0.00 0.00 0.00 59 1017.9
20260903175017 78 151 0.0 0.9 0.00 0.00 0.00 62 1017.9
20260903174511 78 186 0.9 1.7 0.00 0.00 0.00 60 1017.9
20260903174006 77 158 1.7 2.6 0.00 0.00 0.00 62 1018.1
20260903173501 76 102 0.9 2.6 0.00 0.00 0.00 64 1017.9
20260903172957 77 132 0.9 1.7 0.00 0.00 0.00 63 1017.9
20260903172457 76 137 0.0 0.9 0.00 0.00 0.00 64 1018.1
20260903171952 75 71 0.0 0.9 0.00 0.00 0.00 66 1018.2
20260903171447 75 90 1.7 2.6 0.00 0.00 0.00 66 1018.0
20260903170942 75 109 0.0 2.6 0.00 0.00 0.00 67 1018.1
20260903170437 75 89 1.7 1.7 0.00 0.00 0.00 67 1018.0
20260903165936 74 116 0.9 1.7 0.00 0.00 0.00 67 1018.2
20260903165430 73 133 0.9 1.7 0.00 0.00 0.00 68 1018.1
20260903164924 73 89 0.0 3.5 0.00 0.00 0.00 68 1018.0
20260903164419 74 118 0.9 3.5 0.00 0.00 0.00 70 1017.9
20260903163919 73 57 1.7 1.7 0.00 0.00 0.00 70 1018.0
20260903163415 72 90 0.9 2.6 0.00 0.00 0.00 72 1018.0
20260903162911 72 80 3.5 6.1 0.00 0.00 0.00 72 1018.1
20260903162408 72 86 1.7 5.2 0.00 0.00 0.00 72 1018.1
20260903161903 71 141 1.7 5.2 0.00 0.00 0.00 74 1018.1
20260903161358 71 146 1.7 5.2 0.00 0.00 0.00 74 1018.0
20260903160854 71 147 0.0 2.6 0.00 0.00 0.00 76 1018.0
20260903160353 70 98 1.7 3.5 0.00 0.00 0.00 76 1018.0
20260903155851 70 141 1.7 3.5 0.00 0.00 0.00 77 1018.1
20260903155347 69 109 0.9 3.5 0.00 0.00 0.00 78 1018.2
20260903154842 69 71 1.7 2.6 0.00 0.00 0.00 79 1018.2
20260903154338 69 136 0.9 5.2 0.00 0.00 0.00 80 1018.0
20260903153833 69 89 1.7 5.2 0.00 0.00 0.00 80 1018.2
20260903153329 69 108 0.9 0.9 0.00 0.00 0.00 80 1018.3
20260903152826 68 147 0.9 3.5 0.00 0.00 0.00 81 1018.0
20260903152321 68 77 1.7 1.7 0.00 0.00 0.00 82 1018.0
20260903151816 67 177 2.6 5.2 0.00 0.00 0.00 82 1018.2
20260903151312 67 149 0.0 2.6 0.00 0.00 0.00 83 1018.2
20260903150812 66 74 2.6 2.6 0.00 0.00 0.00 83 1018.0
20260903150311 66 146 2.6 3.5 0.00 0.00 0.00 83 1018.1
20260903145806 66 111 1.7 3.5 0.00 0.00 0.00 84 1018.1
20260903145305 66 136 0.0 1.7 0.00 0.00 0.00 84 1018.1
20260903144800 65 110 0.0 0.9 0.00 0.00 0.00 85 1018.1
20260903144256 65 127 0.0 0.9 0.00 0.00 0.00 85 1018.1
20260903143752 64 125 0.0 0.9 0.00 0.00 0.00 86 1018.1
20260903143248 63 118 0.0 0.9 0.00 0.00 0.00 86 1018.1
20260903142743 62 128 0.0 0.9 0.00 0.00 0.00 86 1018.0
20260903142239 62 121 0.0 0.0 0.00 0.00 0.00 87 1017.6
20260903141735 61 124 0.0 0.0 0.00 0.00 0.00 88 1017.9
20260903141230 60 121 0.0 0.0 0.00 0.00 0.00 89 1017.8
20260903140725 59 147 0.0 0.0 0.00 0.00 0.00 91 1017.7
20260903140220 59 141 0.0 0.0 0.00 0.00 0.00 92 1017.6
20260903135716 58 164 0.9 1.7 0.00 0.00 0.00 93 1017.8
20260903135211 57 149 0.0 0.0 0.00 0.00 0.00 93 1017.9
20260903134710 57 157 0.0 0.0 0.00 0.00 0.00 94 1017.8
20260903134206 57 149 0.0 0.0 0.00 0.00 0.00 93 1017.8
20260903133704 57 148 0.0 0.0 0.00 0.00 0.00 93 1017.8
20260903133200 57 149 0.0 0.0 0.00 0.00 0.00 93 1017.8
20260903132700 57 140 0.0 0.0 0.00 0.00 0.00 94 1017.7
20260903132154 56 136 0.0 0.0 0.00 0.00 0.00 94 1017.7
20260903131649 56 143 0.0 0.0 0.00 0.00 0.00 94 1017.6
20260903131148 56 142 0.0 0.0 0.00 0.00 0.00 94 1017.7
20260903130643 56 146 0.0 0.0 0.00 0.00 0.00 94 1017.6
20260903130138 56 159 0.0 0.0 0.00 0.00 0.00 94 1017.8
20260903125636 56 159 0.0 0.0 0.00 0.00 0.00 94 1017.7
20260903125131 56 159 0.0 0.0 0.00 0.00 0.00 93 1017.6
20260903124625 56 159 0.0 0.0 0.00 0.00 0.00 93 1017.5
20260903124119 56 159 0.0 0.0 0.00 0.00 0.00 93 1017.8
20260903123614 57 159 0.0 0.0 0.00 0.00 0.00 93 1017.6
20260903123113 57 159 0.0 0.0 0.00 0.00 0.00 93 1017.8
20260903122613 57 159 0.0 0.0 0.00 0.00 0.00 93 1017.6
20260903122112 57 159 0.0 0.0 0.00 0.00 0.00 93 1017.7
20260903121607 57 160 0.0 0.0 0.00 0.00 0.00 93 1017.6
20260903121102 57 153 0.0 0.0 0.00 0.00 0.00 93 1017.6
20260903120600 57 153 0.0 0.0 0.00 0.00 0.00 93 1017.9
20260903120050 57 157 0.0 0.0 0.00 0.00 0.00 93 1017.8
20260903115549 57 157 0.0 0.0 0.00 0.00 0.00 93 1017.8
20260903115044 57 155 0.0 0.0 0.00 0.00 0.00 93 1017.8
20260903114539 57 153 0.0 0.0 0.00 0.00 0.00 93 1017.9
20260903114035 57 148 0.0 0.0 0.00 0.00 0.00 93 1017.9
20260903113530 57 153 0.0 0.0 0.00 0.00 0.00 93 1017.9
20260903113026 57 166 0.0 0.0 0.00 0.00 0.00 94 1017.7
20260903112521 57 149 0.0 0.0 0.00 0.00 0.00 94 1017.8
20260903112016 57 149 0.0 0.0 0.00 0.00 0.00 94 1017.7
20260903111515 57 149 0.0 0.0 0.00 0.00 0.00 94 1017.9
20260903111011 57 149 0.0 0.0 0.00 0.00 0.00 94 1017.9
20260903110507 58 149 0.0 0.0 0.00 0.00 0.00 95 1017.8
20260903110007 58 149 0.0 0.0 0.00 0.00 0.00 95 1018.0
20260903105501 58 149 0.0 0.0 0.00 0.00 0.00 95 1018.0